Torna al catalogo

FREGAT DEB

AttivoLEO
NORAD 45651·DEBRIS·🇷🇺 Russia

Lanciato Jul 18, 2011 da Baikonur Cosmodrome

Loading…

Prossimi Passaggi (prossime 24 ore)

TLE

AggiornatoSource: Space-Track

Epoca: Sep 12, 2026, 22:04 UTC

1 45651U 11037AT  26255.92000758  .00020395  00000-0  18136-2 0  9994
2 45651  51.5647 133.0449 0963072 315.1055  37.5724 13.39377840 23718

Traccia FREGAT DEB in tempo reale con AllMySat

Download on the App Store